Presure
185 212 224 214 236 201 276 229 218 247 242 245 280 283 267 269 265 270 278 270 271 265 259 258 256 254 241 249 250 249 243 240 220 198 249 200 240 269 245 318 305 283 281 270
198 207 181 228 222 213 256 238 221 250 301 299 249 286 265 257 280 258 263 254 250 249 247 258 249 253 256 254 253 253 255 259 259 253 243 220 175 239 247 271 292 324 289 264
214 216 220 252 215 227 225 205 220 312 262 290 277 272 264 262 258 254 253 250 258 262 262 267 263 262 264 261 264 268 273 270 267 269 272 271 262 217 193 225 221 217 301 292
211 209 210 231 239 211 269 221 208 322 254 293 268 286 290 279 252 247 254 264 273 277 280 279 279 279 281 283 281 279 290 291 284 285 290 293 304 309 257 240 276 246 221 316
222 226 205 241 216 222 274 277 230 265 250 257 285 253 262 258 254 264 277 291 294 301 327 336 339 334 331 328 327 323 322 322 317 319 311 308 308 304 296 303 293 220 276 234
221 238 258 216 238 208 272 254 266 270 249 253 270 257 255 258 268 286 324 379 382 379 361 376 369 364 360 357 350 344 343 340 336 334 318 319 317 309 303 303 305 292 289 270
233 217 244 206 247 229 213 249 236 297 268 268 255 246 252 282 289 412 360 310 301 305 389 388 381 369 361 351 344 338 334 333 339 353 342 333 325 326 316 308 306 307 312 301
226 236 225 225 252 249 260 240 265 288 252 250 245 247 297 298 353 322 312 317 308 302 310 401 389 378 370 361 353 345 340 338 343 343 332 323 311 315 335 325 323 318 313 312
248 269 220 230 212 246 250 256 239 273 255 249 249 302 302 299 326 313 314 306 319 315 349 542 517 489 488 469 456 443 441 437 367 333 328 437 347 318 312 304 299 320 320 320
242 220 213 223 259 248 244 272 260 248 252 253 254 318 304 321 317 311 301 295 294 301 522 532 493 485 478 467 456 453 448 444 446 452 461 464 447 331 428 354 415 331 306 337
235 231 200 239 245 244 255 248 263 265 252 256 267 315 296 327 308 299 290 290 282 294 512 498 484 477 470 472 472 451 425 425 418 423 422 413 414 426 430 436 427 430 421 300
230 214 209 230 248 254 263 276 252 277 251 254 310 311 292 316 300 294 283 282 282 290 285 494 484 476 482 488 494 443 423 431 428 413 405 400 393 403 408 416 425 444 435 423
220 215 254 229 243 230 252 289 250 287 255 260 335 308 289 315 294 287 279 278 277 281 286 284 500 476 468 466 463 460 449 445 436 434 414 416 403 403 403 404 414 419 424 421
218 247 245 253 253 251 243 286 272 283 254 257 328 305 287 314 293 279 275 273 271 273 287 282 316 411 462 364 374 453 427 425 425 419 427 394 394 393 395 404 421 411 408 409
245 257 247 235 233 246 269 305 260 261 250 269 324 306 286 290 300 282 274 270 267 267 276 299 293 307 325 400 418 410 344 363 378 377 373 370 363 364 371 381 402 425 410 399
220 241 221 243 245 243 248 257 247 257 254 279 326 306 285 290 305 286 276 271 264 267 273 277 282 285 294 300 313 340 371 357 312 360 362 365 366 370 379 391 400 410 419 403
221 241 237 239 243 253 239 259 280 253 254 308 316 302 290 277 309 298 281 271 266 258 268 279 284 285 303 279 289 295 298 335 361 360 339 359 362 360 366 376 380 374 385 384
209 238 229 256 239 243 248 267 246 252 254 316 313 303 291 277 309 299 283 270 267 259 256 264 278 289 285 280 278 279 283 291 292 334 359 323 348 353 356 361 368 369 367 365
218 231 234 248 250 243 265 273 254 247 272 311 310 308 283 295 299 304 288 277 266 263 258 257 266 272 276 273 273 279 269 284 276 284 271 161 185 349 301 353 355 356 356 355
211 229 253 282 248 239 284 242 248 254 292 303 303 317 283 310 309 308 296 278 267 262 261 257 254 268 269 270 270 270 267 282 270 276 277 282 216 216 255 232 329 346 343 351
218 263 278 266 252 286 246 251 255 277 311 304 298 310 291 281 355 317 300 280 269 263 260 260 258 255 262 262 266 267 268 285 278 272 263 271 275 252 236 296 342 348 285 339
247 231 268 243 260 279 257 255 270 307 310 303 298 300 298 308 318 358 306 283 273 266 259 258 259 260 260 254 263 266 274 284 291 287 276 274 267 270 276 283 260 315 337 331
250 247 291 305 249 257 253 260 292 318 311 310 301 296 301 299 320 316 332 294 274 268 261 255 257 249 249 262 256 263 270 288 287 272 272 278 280 263 269 274 277 284 296 328
232 270 253 265 271 255 260 285 313 314 357 311 302 299 323 325 315 315 357 301 286 272 265 258 253 250 246 263 262 259 279 286 275 309 399 396 384 358 297 265 269 275 281 286
248 276 263 256 262 257 281 316 309 299 338 340 328 312 326 320 312 316 345 324 284 278 267 265 255 250 256 259 261 262 279 284 288 431 332 318 320 389 397 371 333 279 271 277
254 255 278 262 257 281 314 310 358 364 342 350 305 310 320 315 320 329 343 319 288 275 267 263 264 257 250 262 260 279 290 279 394 330 314 303 301 314 431 416 397 365 314 281
287 250 264 257 284 314 310 371 369 345 354 355 334 323 308 324 325 340 330 307 285 274 265 263 258 253 253 260 268 289 279 286 344 320 309 304 300 302 314 447 422 408 394 343
Wind_Speed
77 91 93 91 90 83 84 89 86 83 84 75 67 62 66 63 63 60 55 56 55 54 56 56 54 54 57 53 51 50 53 49 62 47 53 55 65 51 51 45 56 55 53 52
84 86 69 93 87 88 85 91 93 81 68 64 71 61 67 68 61 64 61 63 63 63 65 62 63 62 60 60 60 58 57 55 55 56 57 55 56 65 55 55 50 51 63 56
93 92 93 84 85 91 92 84 83 70 73 66 67 67 68 67 68 69 69 70 69 66 66 67 63 66 64 64 66 65 63 59 61 58 61 57 54 54 54 57 57 55 54 64
91 87 88 95 85 93 80 90 80 68 71 65 69 64 61 63 70 74 74 72 71 71 68 68 70 70 70 70 69 70 72 65 66 63 63 63 58 55 63 52 61 58 60 59
94 93 84 86 92 85 86 82 84 78 74 74 67 74 71 71 73 74 73 72 71 72 72 71 67 69 70 70 71 72 72 69 69 65 66 66 61 59 63 59 57 54 65 62
92 94 81 87 83 92 82 76 80 79 75 73 71 75 76 76 74 73 72 68 67 67 66 67 66 67 66 69 69 71 74 73 73 68 69 67 64 67 65 65 62 64 66 67
92 90 82 88 75 87 92 74 81 69 76 74 77 80 81 77 75 66 63 61 61 60 63 61 61 60 61 62 62 63 65 67 68 64 67 62 67 69 70 69 71 68 63 66
89 86 88 80 79 80 82 74 77 72 79 79 81 83 75 74 62 62 62 62 61 58 61 58 57 57 57 58 59 60 60 62 65 62 61 56 65 64 68 68 73 73 70 67
83 79 86 79 83 76 78 82 77 77 81 81 85 80 75 71 63 65 66 68 70 68 63 24 24 29 21 23 26 35 36 41 58 58 57 47 60 65 66 65 67 72 74 74
76 84 86 84 83 83 78 89 83 82 84 84 86 77 73 66 64 66 68 71 72 75 32 22 20 21 21 19 25 24 19 19 19 19 22 29 37 34 45 61 59 64 68 78
77 85 90 80 85 81 87 83 89 84 86 85 87 75 74 63 64 65 68 72 75 79 30 28 25 21 21 19 14 14 18 20 23 20 18 22 26 25 31 36 43 50 56 69
75 85 88 83 83 88 95 87 88 85 87 87 82 73 74 62 62 67 70 73 77 80 81 28 27 25 23 18 3 10 20 24 24 23 22 26 28 30 30 31 31 38 43 47
79 82 93 84 85 81 93 87 89 83 88 88 73 71 71 58 62 64 69 71 74 77 79 79 26 32 31 23 14 10 17 19 19 19 24 21 23 26 27 30 33 33 37 35
81 86 87 94 92 91 89 89 89 85 89 90 72 69 69 56 59 61 65 69 72 74 73 74 63 55 39 37 36 18 17 17 14 13 10 8 12 13 15 22 27 26 30 32
89 96 89 82 83 92 96 84 92 91 90 90 71 67 67 62 52 56 60 64 67 69 71 66 63 61 72 55 36 30 40 31 20 15 11 9 11 11 11 12 13 15 25 28
83 90 80 89 90 89 97 97 95 93 91 87 68 65 65 61 49 52 55 59 62 64 65 66 64 59 58 63 72 72 35 35 37 27 20 15 11 9 8 9 6 6 15 22
84 92 89 92 93 96 91 95 87 92 92 81 69 65 63 64 49 49 52 55 57 61 62 60 59 57 62 55 60 63 64 51 32 25 27 18 16 15 13 10 4 0 10 13
82 91 88 95 92 94 100 95 98 94 93 77 69 63 61 63 49 48 48 53 54 57 59 60 55 52 51 49 51 52 54 57 56 47 27 24 23 16 12 8 3 6 13 15
87 91 92 94 95 94 103 89 93 93 90 75 68 60 62 58 52 45 45 47 51 54 56 57 58 55 52 52 51 52 46 50 45 49 43 18 21 24 12 7 2 6 15 21
84 92 97 98 94 92 88 95 91 90 82 73 68 60 59 54 50 42 40 45 48 51 53 56 59 58 57 50 45 44 42 49 40 41 40 41 19 12 18 20 12 9 13 21
86 95 91 95 94 88 96 93 90 85 73 68 65 60 55 58 46 41 38 41 44 46 49 50 52 54 53 53 51 49 43 51 43 36 32 31 31 21 25 32 24 17 16 19
103 86 88 96 93 84 91 91 88 79 69 65 63 60 57 54 48 43 38 38 41 42 46 48 49 50 51 50 51 49 53 57 51 45 37 32 29 26 24 24 24 24 22 23
106 100 90 83 95 90 91 89 84 74 68 61 60 59 57 54 49 46 38 33 38 41 44 47 48 51 51 51 53 54 56 59 48 40 40 39 33 29 29 24 21 20 21 19
100 97 99 94 87 90 89 86 78 71 53 61 58 58 51 50 49 46 41 33 33 37 40 42 46 50 52 53 55 55 62 59 52 60 48 43 39 40 36 33 30 26 23 21
106 97 96 96 92 92 87 78 73 71 57 53 51 53 49 50 51 48 44 36 35 37 40 42 47 51 53 55 58 62 63 59 59 45 44 43 41 39 37 37 37 36 33 30
103 101 90 93 92 89 82 76 60 52 54 48 55 52 49 50 50 48 39 33 34 39 41 45 48 52 55 59 62 67 64 58 46 48 45 42 42 42 40 39 40 41 40 39
87 99 94 94 91 84 78 60 55 54 48 44 45 45 52 49 49 40 34 31 34 39 43 47 52 54 59 62 67 69 62 64 51 51 48 44 41 41 43 38 39 40 43 45
Wind_Direction
329 333 332 332 330 334 334 335 340 338 327 328 332 331 328 326 325 323 321 318 317 315 311 309 306 303 299 296 290 285 281 274 280 271 274 273 282 266 265 256 248 249 247 244
330 332 336 331 332 336 335 336 335 328 335 337 330 330 328 326 326 322 319 317 317 315 312 308 305 301 298 294 290 286 282 281 276 272 271 268 267 273 260 261 254 247 245 241
330 332 333 330 333 330 332 339 338 339 333 336 332 330 328 327 324 322 321 319 316 313 309 306 302 299 295 291 289 286 282 279 275 273 271 266 260 262 251 262 254 256 248 242
330 331 331 329 328 336 339 335 338 339 334 336 331 331 330 326 325 323 320 318 316 311 307 304 301 298 295 291 288 286 283 281 277 275 273 271 269 265 255 247 249 254 254 243
330 331 332 327 334 332 341 341 337 335 335 334 333 330 329 327 325 323 320 317 314 309 302 297 293 288 286 283 279 278 276 274 271 268 267 265 264 262 260 257 249 247 244 255
329 329 327 332 331 335 341 337 340 335 336 335 332 331 329 327 327 325 320 313 309 305 303 296 293 288 284 281 278 276 274 271 268 265 263 262 260 256 256 256 254 249 242 243
330 331 326 334 330 337 334 337 334 337 335 334 333 332 331 330 329 324 325 326 323 322 306 302 297 293 288 284 281 277 275 273 272 267 263 260 259 256 252 249 250 249 247 240
328 326 327 330 339 339 345 335 339 336 337 335 333 331 335 333 334 333 332 333 332 331 329 308 302 295 289 285 281 278 276 274 273 270 264 256 256 254 252 248 248 248 245 243
331 339 328 330 341 339 342 342 338 338 339 337 335 338 337 336 339 340 341 340 340 340 335 336 331 314 309 304 284 281 274 271 270 270 267 265 253 251 252 249 247 246 244 242
332 328 331 326 343 341 340 340 339 341 339 338 337 340 338 340 342 345 344 343 343 344 348 357 339 325 310 294 285 290 298 290 284 277 267 262 266 260 260 250 252 245 245 242
331 332 328 336 342 340 341 341 340 340 340 339 339 341 341 345 344 344 344 345 345 345 356 356 348 338 324 321 288 293 283 271 273 274 271 265 263 258 260 252 249 250 246 245
329 328 327 333 344 344 344 338 341 338 341 341 343 343 343 344 344 345 345 346 345 346 350 357 354 349 346 344 42 237 268 273 271 271 265 261 263 262 258 256 249 241 244 243
327 327 339 333 340 336 344 336 341 338 341 341 345 344 344 342 344 345 344 345 345 348 349 349 7 23 23 15 357 287 304 330 330 283 272 279 280 284 282 275 262 246 240 237
327 338 339 340 341 344 344 337 338 338 341 342 344 344 344 343 344 344 343 344 347 348 349 349 11 27 28 2 12 17 38 34 8 354 344 328 318 320 306 293 278 252 243 233
335 336 340 340 338 343 341 338 340 340 342 341 343 344 343 343 342 342 342 343 345 348 349 357 354 13 25 29 31 34 26 24 29 31 22 6 350 340 325 308 289 266 229 226
331 335 334 339 342 342 342 340 340 339 341 340 343 342 341 341 340 341 340 342 344 348 350 349 352 356 12 23 26 27 18 16 24 12 6 2 6 9 3 1 333 277 228 220
333 334 338 338 340 339 342 338 336 338 340 341 341 340 340 340 337 340 339 340 343 346 349 351 355 360 18 6 20 23 23 23 13 4 359 359 12 9 12 16 19 178 186 200
327 334 337 334 337 340 339 335 338 337 339 340 339 338 338 338 336 336 338 337 341 343 348 350 356 1 6 9 11 13 18 21 20 16 355 353 353 359 3 10 30 157 164 177
331 336 337 333 335 338 332 332 334 335 336 337 338 337 336 334 335 333 334 336 337 339 344 345 351 355 2 5 7 11 3 11 13 15 13 293 303 347 338 336 300 200 183 182
327 335 331 327 334 337 328 336 334 335 335 335 335 334 334 333 331 329 331 333 335 336 341 342 346 354 356 358 359 0 357 3 1 4 5 8 323 307 315 293 294 249 230 211
323 328 328 328 332 326 332 331 332 333 335 333 332 332 334 333 333 324 325 328 332 334 338 339 344 348 348 349 350 346 347 354 351 348 347 351 355 322 303 357 325 285 261 236
328 337 330 333 330 329 327 329 331 333 334 333 332 331 333 332 331 327 320 325 329 331 332 336 339 340 342 342 340 343 347 348 346 344 339 335 330 330 337 340 315 337 299 275
325 330 324 324 331 328 328 329 331 333 332 332 330 330 330 330 329 330 314 317 322 323 328 332 333 335 337 339 338 338 339 342 339 330 324 320 316 307 308 308 308 311 317 295
325 321 328 325 327 328 329 330 331 331 325 331 329 328 326 327 327 330 325 313 314 319 322 323 327 331 334 335 335 337 337 335 332 330 321 317 311 307 302 294 293 288 285 284
321 319 324 326 326 328 329 331 330 329 327 327 327 326 325 327 327 327 324 310 313 316 321 323 324 328 331 332 335 334 333 331 332 325 331 328 326 308 291 283 283 282 282 276
317 321 322 323 327 327 329 329 327 326 326 323 326 325 323 327 327 325 321 312 312 317 320 323 323 327 330 333 333 331 332 330 333 329 326 323 321 323 295 287 276 267 270 270
317 320 321 324 325 327 327 325 325 325 323 322 323 323 325 329 329 327 321 313 311 317 322 323 327 330 331 330 329 331 330 331 329 325 322 318 316 318 319 292 285 276 267 260